Change the Weather History Date:

Tuesday, August 20, 2013

  Actual Average Record
Temperature  
Mean Temperature 77 °F -  
Max Temperature 82 °F 86 °F 92 °F (1959)
Min Temperature 72 °F 71 °F 66 °F (1993)
Cooling Degree Days 12    
Growing Degree Days 27 (Base 50)    
Moisture  
Dew Point 73 °F    
Average Humidity 88    
Maximum Humidity 100    
Minimum Humidity 74    
Precipitation  
Precipitation 0.01 in - - ()
Sea Level Pressure  
Sea Level Pressure 30.15 in    
Wind  
Wind Speed 5 mph (ENE)    
Max Wind Speed 9 mph    
Max Gust Speed -    
Visibility 10 miles    
Events      
Averages and records for this station are not official NWS values.
T = Trace of Precipitation, MM = Missing Value Source: NWS Daily Summary

Daily Weather History Graph

Daily Weather History Graph

Search for Another Location

Airport or City:

Trip Planner

Search our weather history database for the weather conditions in past years. The results will help you decide how hot, cold, wet, or windy it might be!

Date:

Astronomy

Aug. 20, 2013 Rise Set
Actual Time 6:30 AM EDT 7:48 PM EDT
Civil Twilight 6:04 AM EDT 8:14 PM EDT
Nautical Twilight 5:33 AM EDT 8:46 PM EDT
Astronomical Twilight 5:00 AM EDT 9:18 PM EDT
Moon 7:21 PM EDT (8/20) 5:57 AM EDT (8/20)
Length of Visible Light 14h 10m
Length of Day
13h 17m
Full, 100% of the Moon is Illuminated
Aug 20
Full
Aug 20
Full
Aug 28
Last Quarter
Sep 5
New
Sep 12
First Quarter

Hourly Weather History & Observations

Time (EDT) Temp. Heat Index Dew Point Humidity Pressure Visibility Wind Dir Wind Speed Gust Speed Precip Events Conditions
12:58 AM 72.0 °F - 72.0 °F 100% 30.12 in 9.0 mi NE 3.5 mph - N/A   Mostly Cloudy
1:58 AM 72.0 °F - 72.0 °F 100% 30.10 in 9.0 mi NE 4.6 mph - N/A   Overcast
2:58 AM 72.0 °F - 72.0 °F 100% 30.10 in 9.0 mi NE 4.6 mph - N/A   Partly Cloudy
3:58 AM 72.0 °F - 72.0 °F 100% 30.09 in 10.0 mi NE 4.6 mph - N/A   Mostly Cloudy
4:58 AM 72.0 °F - 72.0 °F 100% 30.10 in 9.0 mi NE 3.5 mph - N/A   Overcast
5:58 AM 72.0 °F - 72.0 °F 100% 30.11 in 9.0 mi NE 3.5 mph - N/A   Overcast
6:58 AM 73.0 °F - 73.0 °F 100% 30.12 in 7.0 mi NE 3.5 mph - N/A   Mostly Cloudy
7:58 AM 75.0 °F - 75.0 °F 100% 30.14 in 9.0 mi NE 4.6 mph - N/A   Clear
8:58 AM 77.0 °F - 73.9 °F 90% 30.15 in 10.0 mi NE 6.9 mph - 0.01 in   Clear
9:58 AM 79.0 °F - 73.9 °F 84% 30.16 in 10.0 mi ENE 6.9 mph - N/A   Mostly Cloudy
10:36 AM 78.8 °F - 73.4 °F 83% 30.17 in 10.0 mi ENE 6.9 mph - N/A   Overcast
10:58 AM 79.0 °F - 73.9 °F 84% 30.18 in 10.0 mi East 5.8 mph - N/A   Overcast
11:18 AM 78.8 °F - 73.4 °F 83% 30.18 in 10.0 mi East 8.1 mph - N/A   Overcast
11:51 AM 78.8 °F - 73.4 °F 83% 30.17 in 10.0 mi ENE 6.9 mph - N/A   Overcast
11:58 AM 80.1 °F 84.5 °F 73.9 °F 81% 30.18 in 10.0 mi ENE 9.2 mph - N/A   Overcast
12:54 PM 80.6 °F 85.4 °F 73.4 °F 79% 30.17 in 10.0 mi ENE 9.2 mph - N/A   Mostly Cloudy
12:58 PM 80.1 °F 84.2 °F 73.0 °F 79% 30.17 in 10.0 mi East 8.1 mph - N/A   Mostly Cloudy
1:46 PM 82.4 °F 88.2 °F 73.4 °F 74% 30.17 in 10.0 mi Variable 5.8 mph - N/A   Mostly Cloudy
1:58 PM 82.0 °F 87.9 °F 73.9 °F 76% 30.17 in 10.0 mi ENE 6.9 mph - N/A   Scattered Clouds
2:58 PM 82.0 °F 87.4 °F 73.0 °F 74% 30.15 in 10.0 mi East 8.1 mph - N/A   Clear
3:58 PM 81.0 °F 85.2 °F 72.0 °F 74% 30.14 in 10.0 mi East 9.2 mph - N/A   Clear
4:58 PM 80.1 °F 83.6 °F 71.1 °F 74% 30.14 in 10.0 mi ENE 5.8 mph - N/A   Mostly Cloudy
5:58 PM 79.0 °F - 72.0 °F 79% 30.15 in 10.0 mi East 4.6 mph - N/A   Scattered Clouds
6:58 PM 77.0 °F - 71.1 °F 82% 30.14 in 10.0 mi East 4.6 mph - N/A   Clear
7:58 PM 75.9 °F - 72.0 °F 87% 30.14 in 10.0 mi ESE 5.8 mph - N/A   Clear
8:58 PM 75.0 °F - 73.0 °F 94% 30.17 in 10.0 mi NNE 3.5 mph - N/A   Partly Cloudy
9:58 PM 75.0 °F - 73.9 °F 96% 30.17 in 10.0 mi Calm Calm - N/A   Partly Cloudy
10:58 PM 75.0 °F - 73.0 °F 94% 30.17 in 10.0 mi East 3.5 mph - N/A   Clear
11:58 PM 73.9 °F - 73.0 °F 97% 30.18 in 10.0 mi Calm Calm - N/A   Clear